Location: Laas
(43.4693°N, 0.3073°E)
Time: 15:26:36
(UTC+00:00)

CZ-4 R/B - Pass Details

Date: 25 October 2020
Orbit: 531 x 599 km, 97.7° (Epoch: 23 November)

Event Time Altitude Azimuth Distance (km) Brightness Sun altitude
Rises 17:22:38 0° 124° (SE) 2,712 4.4 -4.9°
Reaches altitude 10° 17:25:26 10° 103° (ESE) 1,811 3.4 -5.4°
Maximum altitude 17:27:48 16° 65° (ENE) 1,474 2.9 -5.8°
Drops below altitude 10° 17:30:10 10° 27° (NNE) 1,803 3.6 -6.3°
Sets 17:32:56 0° 5° (N) 2,693 4.7 -6.8°
